Theta_e
330 329 329 328 329 329 329 330 330 329 328 327 325 324 323 322 320 319 317 315 314 312
327 328 328 327 327 328 328 327 328 327 326 324 323 323 320 317 314 315 313 311 309 307
324 325 328 328 328 328 328 328 328 326 323 320 319 321 319 313 311 308 305 304 303 301
316 319 323 323 323 323 323 322 322 321 319 316 314 313 310 307 305 304 301 300 300 297
310 312 316 318 320 320 319 317 316 313 311 309 307 306 305 302 301 300 298 296 296 295
304 305 305 307 313 312 310 308 307 307 306 304 302 301 300 300 298 297 296 295 294 293
301 303 303 302 303 305 305 304 303 303 302 300 298 297 294 295 294 294 293 293 292 291
302 303 301 297 296 298 298 298 297 296 294 294 294 293 291 291 291 291 290 289 289 289
297 295 295 294 292 291 290 291 291 290 290 289 289 293 292 291 289 288 287 286 285 285
292 291 290 290 289 289 289 289 289 288 288 288 289 292 292 289 287 286 286 285 284 284
290 289 288 288 288 287 287 287 287 287 287 287 288 292 290 288 286 285 284 284 284 284
289 287 287 287 286 286 286 286 286 286 286 286 287 290 290 287 285 284 284 285 284 284
286 287 287 286 285 285 286 285 286 285 286 286 286 290 289 286 285 284 283 284 284 284
283 283 286 285 285 285 285 285 285 285 284 285 286 286 289 288 284 284 283 283 282 283
Wind_Speed
12 8 10 10 8 7 7 7 7 9 9 10 8 7 6 4 5 7 6 7 5 4
9 12 10 9 7 6 6 5 8 8 10 8 8 9 8 4 5 4 5 5 5 4
8 8 10 7 9 7 6 7 8 8 8 7 7 8 8 5 5 6 4 5 7 5
3 4 5 5 4 4 3 6 6 6 7 7 7 7 7 7 8 7 7 5 7 6
2 2 3 3 5 5 6 5 6 6 5 6 6 6 7 8 7 9 8 8 8 8
4 5 5 5 5 5 6 5 5 6 7 7 6 6 6 8 9 9 8 7 10 10
3 4 3 4 5 5 5 6 5 5 6 8 8 7 7 8 8 10 8 8 7 7
2 0 3 2 2 3 3 4 5 7 6 6 6 6 9 9 10 10 10 7 7 5
5 4 3 3 3 4 4 4 5 6 6 7 4 13 13 11 8 8 10 9 7 6
6 5 5 5 5 4 4 4 4 5 6 5 6 14 14 13 7 8 8 8 9 6
5 6 5 5 5 5 3 3 3 4 5 7 5 11 14 13 8 7 7 7 8 8
6 6 6 6 6 4 4 4 4 4 5 6 5 12 14 10 7 7 5 4 5 7
6 6 6 6 6 3 5 4 4 5 5 8 7 12 12 8 5 6 5 4 6 8
4 5 6 6 3 5 5 5 4 4 3 3 7 8 11 9 3 5 5 5 4 3
Wind_Direction
209 205 211 217 214 213 205 204 199 203 206 208 189 183 170 170 182 170 173 172 161 165
205 208 210 209 202 195 186 190 186 188 201 196 185 178 167 165 153 156 145 143 136 128
208 203 208 196 212 205 188 190 190 175 174 174 175 175 162 143 142 148 134 135 132 122
205 193 176 186 186 180 162 160 167 167 163 161 161 154 144 139 138 145 127 125 132 114
165 176 176 189 200 186 185 178 161 151 149 150 151 148 141 139 134 138 143 132 126 131
183 179 198 211 177 153 140 135 134 145 157 153 149 138 133 145 142 129 134 134 140 138
204 182 173 142 150 147 151 157 161 162 150 148 141 135 127 127 130 129 135 123 126 141
195 101 73 97 101 115 145 136 138 130 115 115 127 141 140 132 141 132 122 113 107 112
133 103 118 109 106 100 98 105 114 115 124 128 121 144 139 141 131 121 122 126 116 121
141 140 137 128 121 120 125 109 118 124 125 125 115 134 129 123 125 130 132 139 135 131
142 133 125 117 120 106 101 103 92 96 100 104 103 126 125 114 117 121 133 147 147 139
147 137 141 134 123 90 95 90 97 103 94 102 114 140 138 128 127 123 126 124 134 147
144 141 142 141 138 134 129 127 128 130 147 144 148 160 152 135 129 133 131 137 153 153
121 133 136 126 109 118 114 108 93 92 63 124 147 156 161 156 137 139 149 164 147 159